White Plains, CT

12:31 PM EST on November 15, 2019 (GMT -0500)
Westchester County

Weather History for KHPN - September, 2019

Change the Weather History Date:

Sunday, September 29, 2019

  Actual Average Record
Temperature  
Mean Temperature 68 °F -  
Max Temperature 77 °F 65 °F 80 °F (2014)
Min Temperature 60 °F 48 °F 35 °F (2000)
Cooling Degree Days 2    
Growing Degree Days 18 (Base 50)    
Moisture  
Dew Point 55 °F    
Average Humidity 64    
Maximum Humidity 97    
Minimum Humidity 38    
Precipitation  
Precipitation 0.00 in - - ()
Sea Level Pressure  
Sea Level Pressure 30.20 in    
Wind  
Wind Speed 7 mph ()    
Max Wind Speed 13 mph    
Max Gust Speed 22 mph    
Visibility 10.0 miles    
Events      
Averages and records for this station are not official NWS values.
T = Trace of Precipitation, MM = Missing Value Source: Averaged Metar Reports

Daily Weather History Graph

Daily Weather History Graph

Search for Another Location

Airport or City:

Astronomy

Sep. 29, 2019 Rise Set
Actual Time 6:49 AM EDT 6:40 PM EDT
Civil Twilight 6:21 AM EDT 7:07 PM EDT
Nautical Twilight 5:49 AM EDT 7:39 PM EDT
Astronomical Twilight 5:17 AM EDT 8:12 PM EDT
Moon 7:36 AM EDT (9/29) 7:39 PM EDT (9/29)
Length of Visible Light 12h 46m
Length of Day
11h 51m
New Moon, 1% of the Moon is Illuminated
Sep 29
New Moon
Oct 5
First Quarter
Oct 13
Full
Oct 21
Last Quarter
Oct 27
New

Hourly Weather History & Observations

Time (EDT) Temp. Dew Point Humidity Pressure Visibility Wind Dir Wind Speed Gust Speed Precip Events Conditions
12:56 AM 69.1 °F 66.9 °F 93% 30.06 in 10.0 mi WNW 6.9 mph - N/A   Clear
1:56 AM 69.1 °F 66.9 °F 93% 30.08 in 10.0 mi Calm Calm - N/A   Clear
2:56 AM 66.9 °F 66.0 °F 97% 30.08 in 10.0 mi NW 5.8 mph - N/A   Clear
3:56 AM 66.9 °F 64.9 °F 93% 30.09 in 10.0 mi NW 5.8 mph - N/A   Clear
4:56 AM 68.0 °F 66.0 °F 93% 30.12 in 10.0 mi NW 9.2 mph - N/A   Clear
5:56 AM 66.9 °F 64.9 °F 93% 30.14 in 10.0 mi NNW 8.1 mph - N/A   Clear
6:56 AM 66.9 °F 63.0 °F 87% 30.16 in 10.0 mi NNW 10.4 mph - N/A   Partly Cloudy
7:56 AM 68.0 °F 61.0 °F 78% 30.18 in 10.0 mi North 9.2 mph - N/A   Partly Cloudy
8:56 AM 70.0 °F 57.9 °F 65% 30.22 in 10.0 mi North 11.5 mph 21.9 mph N/A   Partly Cloudy
9:56 AM 72.0 °F 57.9 °F 61% 30.24 in 10.0 mi NNE 11.5 mph - N/A   Partly Cloudy
10:56 AM 73.9 °F 55.0 °F 52% 30.24 in 10.0 mi NNE 10.4 mph - N/A   Partly Cloudy
11:56 AM 73.9 °F 53.1 °F 48% 30.25 in 10.0 mi North 10.4 mph - N/A   Partly Cloudy
12:56 PM 75.0 °F 51.1 °F 43% 30.24 in 10.0 mi North 12.7 mph 17.3 mph N/A   Clear
1:56 PM 75.0 °F 51.1 °F 43% 30.23 in 10.0 mi NNW 6.9 mph - N/A   Clear
2:56 PM 75.9 °F 48.9 °F 38% 30.23 in 10.0 mi North 12.7 mph - N/A   Clear
3:56 PM 75.9 °F 48.9 °F 38% 30.22 in 10.0 mi North 10.4 mph 18.4 mph N/A   Clear
4:56 PM 72.0 °F 48.0 °F 43% 30.23 in 10.0 mi North 11.5 mph - N/A   Clear
5:56 PM 71.1 °F 48.9 °F 45% 30.23 in 10.0 mi NNW 10.4 mph - N/A   Clear
6:56 PM 66.9 °F 48.9 °F 52% 30.26 in 10.0 mi North 8.1 mph - N/A   Clear
7:56 PM 64.0 °F 46.9 °F 54% 30.27 in 10.0 mi North 9.2 mph - N/A   Clear
8:56 PM 63.0 °F 45.0 °F 52% 30.28 in 10.0 mi North 8.1 mph - N/A   Clear
9:56 PM 62.1 °F 45.0 °F 53% 30.28 in 10.0 mi North 6.9 mph - N/A   Clear
10:56 PM 60.1 °F 46.0 °F 60% 30.29 in 10.0 mi North 5.8 mph - N/A   Clear
11:56 PM 60.1 °F 45.0 °F 57% 30.29 in 10.0 mi North 3.5 mph - N/A   Clear